Lake Cumberland Weather Center

Moon Phase Calendar



Lake Cumberland Water Level
Online Cameras

 


      

Current Conditions in Monticello
7/17/2024 6:11:13 PM

77°F
Feels Like 79
Clouds
Humidity
95%
Pressure
29.91"
Wind
3 mph (SW)
Dew Point
75°F
UV Index
2/10 (Low)
Visibility
6 mi

Hourly Forecast

Date & Time Wed, Jul 17
6:00 PM
Wed, Jul 17
7:00 PM
Wed, Jul 17
8:00 PM
Wed, Jul 17
9:00 PM
Wed, Jul 17
10:00 PM
Wed, Jul 17
11:00 PM
Thu, Jul 18
12:00 AM
Thu, Jul 18
1:00 AM
Thu, Jul 18
2:00 AM
Thu, Jul 18
3:00 AM
Thu, Jul 18
4:00 AM
Thu, Jul 18
5:00 AM
Thu, Jul 18
6:00 AM
Thu, Jul 18
7:00 AM
Thu, Jul 18
8:00 AM
Thu, Jul 18
9:00 AM
Thu, Jul 18
10:00 AM
Thu, Jul 18
11:00 AM
Thu, Jul 18
12:00 PM
Thu, Jul 18
1:00 PM
Thu, Jul 18
2:00 PM
Thu, Jul 18
3:00 PM
Thu, Jul 18
4:00 PM
Thu, Jul 18
5:00 PM
Thu, Jul 18
6:00 PM
Thu, Jul 18
7:00 PM
Thu, Jul 18
8:00 PM
Thu, Jul 18
9:00 PM
Thu, Jul 18
10:00 PM
Thu, Jul 18
11:00 PM
Fri, Jul 19
12:00 AM
Fri, Jul 19
1:00 AM
Fri, Jul 19
2:00 AM
Fri, Jul 19
3:00 AM
Fri, Jul 19
4:00 AM
Fri, Jul 19
5:00 AM
Fri, Jul 19
6:00 AM
Fri, Jul 19
7:00 AM
Fri, Jul 19
8:00 AM
Fri, Jul 19
9:00 AM
Fri, Jul 19
10:00 AM
Fri, Jul 19
11:00 AM
Fri, Jul 19
12:00 PM
Fri, Jul 19
1:00 PM
Fri, Jul 19
2:00 PM
Fri, Jul 19
3:00 PM
Fri, Jul 19
4:00 PM
Fri, Jul 19
5:00 PM
Condition
Rain

Clouds

Clouds

Rain

Rain

Rain

Rain

Rain

Rain

Rain

Rain

Rain

Rain

Rain

Clouds

Clouds

Clouds

Clouds

Clouds

Clouds

Clouds

Clouds

Clouds

Clouds

Clouds

Clouds

Clouds

Clouds

Clouds

Clouds

Clouds

Clouds

Clouds

Clouds

Clouds

Clouds

Clouds

Clouds

Clouds

Clouds

Clouds

Clouds

Clouds

Clouds

Clouds

Clouds

Clouds

Clouds
Temperature 77°F77°F76°F74°F72°F70°F70°F71°F70°F70°F69°F69°F68°F68°F68°F69°F71°F74°F77°F79°F81°F83°F83°F82°F80°F76°F73°F70°F68°F65°F63°F61°F61°F60°F60°F60°F60°F60°F62°F65°F70°F71°F74°F75°F79°F80°F80°F78°F
Feels Like 79°F79°F78°F76°F74°F72°F72°F72°F72°F71°F70°F70°F69°F69°F69°F70°F72°F75°F78°F79°F82°F83°F83°F82°F80°F76°F73°F70°F68°F64°F63°F61°F61°F60°F60°F60°F60°F60°F62°F65°F69°F71°F73°F75°F79°F81°F81°F78°F
Cloudiness 100%100%100%98%98%94%96%96%97%100%100%100%100%100%100%100%100%100%99%98%99%100%92%95%96%97%97%100%99%82%87%78%81%100%100%100%100%100%100%100%100%100%100%100%100%100%100%100%
Visibility 6 mi6 mi6 mi6 mi6 mi6 mi6 mi6 mi6 mi6 mi6 mi5 mi6 mi6 mi6 mi6 mi6 mi6 mi6 mi6 mi6 mi6 mi6 mi6 mi6 mi6 mi6 mi6 mi6 mi6 mi6 mi6 mi6 mi6 mi6 mi6 mi6 mi6 mi6 mi6 mi6 mi6 mi6 mi6 mi6 mi6 mi6 mi6 mi
Precipitation 100%80%80%100%100%100%100%100%100%100%100%100%100%100%80%0%0%0%0%0%0%0%0%0%0%0%0%0%0%0%0%0%0%0%0%0%0%0%0%0%0%0%0%0%0%0%0%0%
Humidity 95%94%94%95%96%95%96%95%95%97%98%99%98%98%97%94%86%73%65%59%54%47%44%45%51%62%68%71%74%76%76%83%83%84%82%82%83%83%80%72%64%61%58%55%50%50%53%64%
Dew Point 75°F75°F74°F72°F71°F69°F69°F69°F69°F69°F69°F68°F68°F67°F68°F67°F67°F66°F65°F64°F63°F61°F59°F59°F61°F62°F62°F60°F59°F57°F55°F56°F56°F55°F55°F55°F55°F55°F56°F56°F57°F58°F58°F58°F59°F60°F62°F65°F
Pressure 29.91"29.91"29.91"29.94"29.94"29.94"29.97"29.97"29.97"29.97"29.94"29.97"29.97"30"30"30.03"30.03"30.03"30.03"30.03"30.03"30"30"30"30"30"30"30.03"30.03"30.06"30.06"30.06"30.06"30.06"30.06"30.06"30.06"30.06"30.09"30.09"30.09"30.09"30.09"30.09"30.09"30.06"30.03"30.03"
Wind Speed 8.2 mph6.6 mph4.1 mph4.3 mph2.6 mph1.7 mph2.6 mph2.2 mph1.2 mph2.5 mph2.8 mph3.2 mph3.2 mph3.6 mph4.6 mph6.5 mph6.9 mph7.2 mph7.2 mph7.8 mph7.4 mph7.5 mph8.3 mph8.9 mph9.3 mph8.4 mph6.6 mph5.2 mph4.9 mph5.1 mph5.4 mph5.7 mph5.6 mph5.5 mph5.8 mph6 mph5.8 mph6.2 mph6 mph7.4 mph7.4 mph7.8 mph6.8 mph5.7 mph5.1 mph4.4 mph2.6 mph1.1 mph
Wind
Direction
283°
WNW
299°
WNW
298°
WNW
306°
NW
332°
NNW

N
272°
W
277°
W
313°
NW
10°
N

N
15°
NNE
13°
NNE

N

N
21°
NNE
19°
NNE
15°
NNE

N
358°
N
357°
N
355°
N
347°
NNW
343°
NNW
335°
NNW
331°
NNW
339°
NNW
340°
NNW
351°
N

N
29°
NNE
49°
NE
50°
NE
46°
NE
49°
NE
44°
NE
50°
NE
57°
ENE
57°
ENE
66°
ENE
59°
ENE
55°
NE
52°
NE
55°
NE
50°
NE
47°
NE
34°
NE
286°
WNW

Daily Forecast

Date High Low Precip. Humidity
Today
Jul 17

Rain
81 °F
69 °F
100%
78%
Thursday
Jul 18

Rain
83 °F
65 °F
100%
59%
Friday
Jul 19

Clouds
80 °F
60 °F
0%
55%
Saturday
Jul 20

Rain
83 °F
64 °F
67%
60%
Sunday
Jul 21

Rain
89 °F
66 °F
100%
48%
Monday
Jul 22

Rain
75 °F
68 °F
100%
97%
Tuesday
Jul 23

Rain
81 °F
67 °F
100%
75%
Wednesday
Jul 24

Rain
83 °F
70 °F
100%
73%
Thursday
Jul 25

Rain
78 °F
69 °F
100%
90%
Friday
Jul 26

Rain
72 °F
68 °F
100%
96%
Saturday
Jul 27

Rain
72 °F
67 °F
100%
96%
Sunday
Jul 28

Rain
76 °F
69 °F
100%
93%
Monday
Jul 29

Rain
83 °F
67 °F
74%
77%
Tuesday
Jul 30

Rain
83 °F
69 °F
100%
76%
Wednesday
Jul 31

Rain
85 °F
71 °F
100%
66%
Thursday
Aug 1

Rain
85 °F
71 °F
100%
70%

Temperature 8-14 Day Outlook



Precipitation 8-14 Day Outlook






About Us
Contact Us
Site Map
Search Site
Advertise With Us
   
Cumberland.USLakes.info
THE LAKE CUMBERLAND WEBSITE

Copyright 2024, Lakes Online
Privacy    |    Legal